[[{"header":{"parameterUnit":"m.s-1","parameterCategory":1,"la1":30.2991,"la2":30.254,"lo1":-89.0895,"lo2":-89.0444,"dy":0.0017,"dx":0.0017,"nx":28,"ny":28,"refTime":"2024-10-13T21:00:00:Z","depth":0,"parameterNumber":2,"parameterNumberName":"U-component_of_WINDS"},"data":[0,0,0,0,0,0,0,0,0,0,0,0,0,0,0,0,0,0,0,0,0,0,0,0,0,0,0,0,0,0,0,0,0,0,0,0,0,0,0,0,0,0,0,0,0,0,0,0,0,0,0,0,0,0,0,0,0,0,2.4479,2.448,0,2.458,2.4581,2.4582,2.4596,2.4595,2.4594,2.4593,2.4698,2.4702,2.4705,0,0,0,0,0,0,0,0,0,0,0,0,0,2.4301,2.4304,2.4479,2.448,2.4481,2.4579,2.4581,2.4582,2.4596,2.4595,2.4594,2.4592,2.4697,2.4701,2.4706,0,0,0,0,0,0,0,0,0,0,0,0,0,2.4387,2.4305,2.4479,2.45,2.4503,2.4579,2.4581,2.4583,2.4596,2.4595,2.4593,2.4592,2.4696,2.4701,2.4706,2.4769,0,0,2.4723,2.4726,0,0,0,0,0,0,0,0,2.4382,2.4394,2.4495,2.4499,2.4502,2.4574,2.4557,2.4645,2.4596,2.4561,2.4593,2.4591,2.4658,2.4667,2.4689,2.4774,2.4778,2.4724,2.4727,2.4729,2.4731,0,0,0,0,0,0,0,2.4376,2.439,2.4519,2.4497,2.4501,2.4505,2.4516,2.4573,2.4616,2.4564,2.4565,2.4577,2.466,2.4683,2.4691,2.478,2.4724,2.4729,2.4732,2.4734,2.4922,2.4924,0,0,0,0,0,0,2.4366,2.4385,2.4515,2.4522,2.4437,2.451,2.4522,2.4552,2.4616,2.4624,2.4578,2.4577,2.4675,2.4685,2.4695,2.4772,2.4729,2.4735,2.4738,2.4921,2.4923,2.4925,0,0,0,0,0,0,2.4362,2.4378,2.4511,2.4454,2.4471,2.4514,2.4548,2.4555,2.4578,2.4626,2.4634,2.4594,2.4674,2.4687,2.475,2.4776,2.4737,2.4742,2.4919,2.4921,2.4924,2.4928,0,0,0,0,0,0,2.4357,2.4376,2.44,2.4454,2.4474,2.4564,2.455,2.4558,2.4588,2.4588,2.4643,2.4651,2.4674,2.4742,2.4756,2.4783,2.4746,2.4917,2.492,2.4923,2.4925,2.493,2.4934,0,0,0,0,0,2.4351,2.4397,2.4401,2.4417,2.4504,2.4566,2.4577,2.4601,2.459,2.4614,2.4645,2.465,2.4771,2.4748,2.4764,2.4793,2.4915,2.4919,2.4923,2.4923,2.4929,2.4934,0,0,0,0,0,0,2.4345,2.4405,2.4409,2.4474,2.4515,2.4568,2.4599,2.4607,2.4652,2.465,2.4679,2.4691,2.4753,2.478,2.4753,2.4858,2.4842,2.4849,2.4838,2.4843,2.4847,2.4839,2.4751,0,0,0,0,0,2.4351,2.4396,2.4446,2.4499,2.4519,2.4556,2.4583,2.4599,2.4642,2.4659,2.4694,2.4737,2.4785,2.4816,2.4863,2.493,2.4942,2.4958,2.4962,2.4965,2.4971,2.5009,2.5016,2.4937,2.4937,2.4937,0,0,2.4365,2.4403,2.4429,2.4498,2.4531,2.4578,2.457,2.4619,2.4653,2.4667,2.4728,2.4756,2.4805,2.4871,2.4902,2.4895,2.4996,2.497,2.4972,2.4976,2.5013,2.5021,2.5027,2.494,2.4939,2.4939,0,0,2.4413,2.4446,2.4494,2.4527,2.4577,2.4602,2.4613,2.4666,2.4684,2.4747,2.4758,2.48,2.4882,2.4917,2.4945,2.5007,2.5013,2.5022,2.5044,2.5081,2.5087,2.5092,2.5114,2.5122,2.5028,2.5028,2.5028,0,2.4423,2.4492,2.4517,2.4566,2.4596,2.4611,2.4659,2.4691,2.4754,2.4775,2.4767,2.487,2.4905,2.4978,2.4994,2.5016,2.5031,2.5015,2.5084,2.509,2.5095,2.5117,2.5125,2.5028,2.5028,2.5028,2.5028,0,2.4503,2.4551,2.4583,2.4643,2.4678,2.4726,2.4759,2.4791,2.4804,2.4829,2.4893,2.4935,2.499,2.501,2.5023,2.5086,2.508,2.5078,2.5063,2.5103,2.5123,2.5132,2.5029,2.5029,2.5029,2.5029,0,0,2.4548,2.4622,2.4634,2.4662,2.4719,2.4757,2.4806,2.486,2.4887,2.4931,2.4973,2.5043,2.5041,2.5073,2.5091,2.5123,2.5169,2.5117,2.5118,2.5124,2.5241,2.5242,2.5251,2.5174,2.5176,2.5177,2.5237,0,2.4602,2.469,2.4715,2.479,2.4835,2.485,2.4893,2.4933,2.4959,2.5001,2.503,2.5079,2.5073,2.5092,2.5125,2.5157,2.5193,2.5153,2.5214,2.5216,2.52,2.5262,2.5263,2.5317,2.5245,2.5247,2.5248,0,2.4676,2.4721,2.48,2.4852,2.4872,2.491,2.4962,2.5002,2.5049,2.5065,2.5102,2.5116,2.517,2.5153,2.5227,2.5199,2.5226,2.5245,2.5248,2.5254,2.5233,2.5269,2.5335,2.5342,2.5261,2.526,2.5259,0,2.4701,2.4781,2.4839,2.4862,2.4924,2.4951,2.4978,2.5023,2.5054,2.51,2.5121,2.5172,2.52,2.524,2.5269,2.5254,2.534,2.5326,2.5356,2.5355,2.5372,2.5371,2.5443,2.5391,2.5391,2.5391,2.5391,0,2.4758,2.4806,2.4851,2.4886,2.494,2.4969,2.5022,2.505,2.509,2.5132,2.5149,2.5188,2.5223,2.5267,2.529,2.5348,2.5361,2.5376,2.5381,2.5374,2.5372,2.5391,2.5388,2.5393,2.5393,2.5392,2.5392,0,2.4794,2.4826,2.489,2.4944,2.4959,2.4996,2.5043,2.5078,2.5105,2.5157,2.5171,2.5214,2.5266,2.5299,2.5366,2.5382,2.5445,2.5449,2.5429,2.5431,2.5459,2.5455,2.5545,2.5558,2.5499,2.5499,2.55,0,2.4827,2.4864,2.4923,2.4951,2.4979,2.5025,2.5057,2.5088,2.512,2.5176,2.5205,2.5259,2.5303,2.5387,2.5424,2.5475,2.5481,2.5509,2.5488,2.548,2.548,2.5477,2.5481,2.5511,2.5512,2.5512,2.5513,0,2.4884,2.4898,2.4943,2.4994,2.5031,2.5073,2.5114,2.5137,2.5175,2.5211,2.5265,2.5299,2.5368,2.5421,2.5476,2.5505,2.5515,2.5519,2.5529,2.5521,2.5507,2.5514,2.5437,2.5516,2.5516,2.5516,2.5516,2.5515,2.4919,2.4953,2.4999,2.5049,2.5083,2.5122,2.5158,2.5189,2.5235,2.5292,2.5308,2.5364,2.5411,2.5486,2.5516,2.5561,2.5557,2.5571,2.5574,2.5577,2.5577,2.5501,2.5571,2.5571,2.5571,2.5571,2.5571,0,2.4975,2.5006,2.5052,2.5109,2.5149,2.5155,2.5202,2.5235,2.5284,2.5326,2.537,2.5432,2.5484,2.5525,2.5579,2.5607,2.5613,2.562,2.5617,2.5624,2.5578,2.5564,2.5614,2.5614,2.5614,2.5614,2.5614,2.5614,2.5009,2.5066,2.5087,2.5162,2.5192,2.5247,2.5273,2.531,2.5343,2.5412,2.5455,2.5482,2.5524,2.5581,2.5629,2.564,2.5659,2.5665,2.5676,2.5632,2.5627,2.5623,2.561,2.5669,2.5669,2.5719,2.5719,2.5719]},{"header":{"parameterUnit":"m.s-1","parameterCategory":1,"la1":30.2991,"la2":30.254,"lo1":-89.0895,"lo2":-89.0444,"dy":0.0017,"dx":0.0017,"nx":28,"ny":28,"refTime":"2024-10-13T21:00:00:Z","depth":0,"parameterNumber":3,"parameterNumberName":"V-component_of_WINDS"},"data":[0,0,0,0,0,0,0,0,0,0,0,0,0,0,0,0,0,0,0,0,0,0,0,0,0,0,0,0,0,0,0,0,0,0,0,0,0,0,0,0,0,0,0,0,0,0,0,0,0,0,0,0,0,0,0,0,0,0,3.0899,3.0898,0,3.0862,3.0862,3.0861,3.0862,3.0863,3.0863,3.0864,3.0821,3.0819,3.0818,0,0,0,0,0,0,0,0,0,0,0,0,0,3.0963,3.0962,3.0899,3.0898,3.0898,3.0862,3.0862,3.0861,3.0862,3.0863,3.0863,3.0864,3.0821,3.082,3.0818,0,0,0,0,0,0,0,0,0,0,0,0,0,3.0931,3.0961,3.0899,3.0894,3.0893,3.0862,3.0862,3.0861,3.0862,3.0863,3.0864,3.0864,3.0822,3.082,3.0817,3.0787,0,0,3.081,3.0809,0,0,0,0,0,0,0,0,3.0933,3.0929,3.0895,3.0894,3.0893,3.0868,3.0869,3.0836,3.0862,3.0874,3.0864,3.0865,3.0835,3.0832,3.0823,3.0785,3.0783,3.081,3.0808,3.0807,3.0806,0,0,0,0,0,0,0,3.0935,3.0931,3.0884,3.0895,3.0894,3.0892,3.0888,3.0862,3.085,3.0873,3.0873,3.0869,3.0835,3.0826,3.0822,3.0782,3.081,3.0808,3.0806,3.0805,3.0714,3.0713,0,0,0,0,0,0,3.0939,3.0932,3.0885,3.0883,3.0916,3.089,3.0886,3.0875,3.0851,3.0848,3.0868,3.0869,3.0829,3.0825,3.0821,3.0782,3.0807,3.0805,3.0803,3.0715,3.0714,3.0713,0,0,0,0,0,0,3.0941,3.0935,3.0887,3.0908,3.0901,3.0888,3.0876,3.0874,3.0865,3.0847,3.0845,3.0861,3.083,3.0824,3.0795,3.078,3.0804,3.0802,3.0716,3.0714,3.0713,3.0704,0,0,0,0,0,0,3.0943,3.0936,3.0926,3.0908,3.09,3.0864,3.0875,3.0873,3.0861,3.0862,3.084,3.0837,3.083,3.0799,3.0793,3.0777,3.08,3.0717,3.0715,3.0714,3.0706,3.0702,3.07,0,0,0,0,0,3.0945,3.0924,3.0925,3.0919,3.0888,3.0863,3.0858,3.0852,3.086,3.0848,3.0837,3.0838,3.0783,3.0796,3.0789,3.0772,3.0718,3.0716,3.0714,3.0707,3.0703,3.07,0,0,0,0,0,0,3.0939,3.0921,3.0923,3.0896,3.0881,3.0863,3.0849,3.0849,3.083,3.0831,3.0823,3.0818,3.0788,3.0777,3.0792,3.074,3.0751,3.0747,3.0748,3.0745,3.0742,3.0744,3.0798,0,0,0,0,0,3.0935,3.0918,3.0903,3.088,3.0873,3.0862,3.0851,3.0848,3.0831,3.0824,3.0811,3.0793,3.0772,3.0758,3.0737,3.0704,3.0698,3.0689,3.0687,3.0684,3.0681,3.066,3.0655,3.0705,3.0705,3.0705,0,0,3.0926,3.0914,3.0904,3.0879,3.0867,3.0847,3.0857,3.0836,3.0821,3.0821,3.0792,3.0782,3.0761,3.0729,3.0714,3.0719,3.0665,3.0681,3.068,3.0677,3.0657,3.0652,3.0648,3.0704,3.0704,3.0704,0,0,3.0898,3.0889,3.0868,3.0856,3.0839,3.0831,3.0826,3.0808,3.0801,3.0773,3.0772,3.0752,3.0716,3.0701,3.0689,3.0654,3.0653,3.0647,3.0632,3.0611,3.0607,3.0603,3.0589,3.0584,3.0644,3.0644,3.0644,0,3.0888,3.0861,3.0857,3.0836,3.0824,3.0825,3.0802,3.079,3.0765,3.0756,3.0762,3.0716,3.0702,3.0665,3.0657,3.0648,3.0639,3.0649,3.0609,3.0605,3.0601,3.0587,3.0582,3.0643,3.0643,3.0643,3.0644,0,3.0848,3.0829,3.0814,3.0792,3.0779,3.0757,3.0747,3.0733,3.0731,3.0722,3.0691,3.0675,3.065,3.0641,3.0638,3.0603,3.0606,3.0611,3.0621,3.0596,3.0582,3.0577,3.0642,3.0643,3.0643,3.0643,0,0,3.0816,3.0792,3.0787,3.0776,3.0756,3.074,3.0717,3.0694,3.0681,3.0664,3.0642,3.0611,3.0615,3.06,3.0595,3.0578,3.0548,3.0583,3.0583,3.0576,3.0505,3.0501,3.0495,3.0548,3.0547,3.0546,3.0506,0,3.0786,3.0748,3.0742,3.0707,3.0688,3.0687,3.0667,3.0651,3.0641,3.0622,3.061,3.0588,3.0595,3.0586,3.0569,3.0555,3.0533,3.0558,3.0525,3.0524,3.0529,3.0488,3.0484,3.0448,3.0501,3.05,3.05,0,3.0745,3.0728,3.0691,3.0672,3.0664,3.0646,3.0623,3.0606,3.0586,3.058,3.0564,3.056,3.0534,3.0546,3.0507,3.0524,3.051,3.0501,3.0499,3.0495,3.0509,3.048,3.0436,3.043,3.0492,3.0492,3.0493,0,3.0723,3.0691,3.0664,3.0655,3.0633,3.0619,3.0609,3.0591,3.0577,3.0556,3.0546,3.0523,3.0509,3.0489,3.0478,3.0489,3.0439,3.0451,3.0431,3.0431,3.0419,3.042,3.037,3.0413,3.0413,3.0413,3.0414,0,3.0688,3.0665,3.0654,3.0637,3.061,3.0603,3.0576,3.0566,3.0549,3.0529,3.0526,3.0506,3.0494,3.0471,3.0462,3.043,3.0424,3.0416,3.0414,3.0416,3.0416,3.0405,3.0406,3.0412,3.0412,3.0413,3.0413,0,3.0658,3.065,3.0621,3.0602,3.0597,3.0578,3.056,3.0543,3.0533,3.0507,3.05,3.0484,3.0457,3.0445,3.0411,3.0405,3.0367,3.0368,3.0374,3.0373,3.0352,3.0354,3.0292,3.0283,3.0334,3.0334,3.0333,0,3.0636,3.0619,3.0598,3.0585,3.0575,3.0554,3.0539,3.0531,3.0516,3.0492,3.0476,3.045,3.0428,3.0384,3.0368,3.0341,3.034,3.032,3.0335,3.0337,3.0336,3.0337,3.0334,3.0316,3.0316,3.0316,3.0315,0,3.0597,3.0593,3.0574,3.0553,3.0536,3.0518,3.0501,3.049,3.0478,3.0461,3.0434,3.0417,3.0383,3.0355,3.0327,3.0314,3.0311,3.0311,3.0304,3.0305,3.0309,3.0304,3.0365,3.0312,3.0312,3.0312,3.0313,3.0313,3.0568,3.0552,3.0535,3.0513,3.0499,3.0482,3.0464,3.0453,3.0431,3.0404,3.04,3.0371,3.0349,3.0312,3.0297,3.0272,3.0276,3.0267,3.0264,3.0262,3.0259,3.0314,3.0267,3.0267,3.0267,3.0267,3.0267,0,3.0527,3.0516,3.0496,3.0472,3.0454,3.0456,3.0436,3.042,3.0395,3.0376,3.0355,3.0322,3.0295,3.0277,3.0248,3.0231,3.0229,3.0224,3.0224,3.022,3.0258,3.0266,3.0226,3.0226,3.0226,3.0226,3.0226,3.0226,3.0503,3.0475,3.0469,3.0433,3.0421,3.0394,3.0382,3.0365,3.035,3.0315,3.0293,3.0282,3.0262,3.0232,3.0206,3.0201,3.0189,3.0184,3.0178,3.0214,3.0218,3.0222,3.0229,3.0182,3.0182,3.0142,3.0141,3.0141]}]]